Location: Unspecified
(0.0000°N, 0.0000°E)
Time: 21:22:36
(UTC+01:00)

ARIANE 5 R/B - Visible Passes

Search period start: 28 November 2014 00:00
Search period end: 08 December 2014 00:00
Orbit: 631 x 38472 km, 7.1° (Epoch: 26 November)

Date Brightness Start Highest point End Pass type
(mag) Time Alt. Az. Time Alt. Az. Time Alt. Az.
28 Nov 10.2 15:16:34 10° W 16:38:24 25° W 19:27:16 10° W visible
29 Nov 9.5 14:03:58 10° W 15:41:08 40° W 20:10:56 10° W visible
30 Nov 7.4 00:29:32 10° W 00:33:05 14° WNW 00:33:05 14° WNW visible
30 Nov 6.8 12:58:39 10° W 23:38:23 33° WNW 23:38:23 33° WNW visible
01 Dec 6.1 11:56:40 10° W 13:44:40 71° WSW 22:43:44 59° NW visible
02 Dec 5.8 10:56:31 10° W 13:03:18 84° SSW 21:49:04 66° NE visible
03 Dec 6.1 09:57:31 10° W 14:04:37 87° S 20:54:25 39° ENE visible
04 Dec 6.7 08:59:14 10° W 14:48:43 89° S 19:59:45 18° ENE visible
07 Dec 5.5 06:06:41 10° W 06:13:07 69° S 17:02:57 10° E visible
